[[{"header":{"parameterUnit":"m.s-1","parameterCategory":1,"la1":30.2991,"la2":30.254,"lo1":-89.0895,"lo2":-89.0444,"dy":0.0017,"dx":0.0017,"nx":28,"ny":28,"refTime":"2025-07-11T21:00:00:Z","depth":0,"parameterNumber":2,"parameterNumberName":"U-component_of_WINDS"},"data":[0,0,0,0,0,0,0,0,0,0,0,0,0,0,0,0,0,0,0,0,0,0,0,0,0,0,0,0,0,0,0,0,0,0,0,0,0,0,0,0,0,0,0,0,0,0,0,0,0,0,0,0,0,0,0,0,0,0,1.1612,1.1612,0,1.1571,1.1571,1.157,1.1546,1.1546,1.1546,1.1546,1.1506,1.1505,1.1504,0,0,0,0,0,0,0,0,0,0,0,0,0,1.1673,1.1672,1.1612,1.1612,1.1611,1.1571,1.1571,1.157,1.1546,1.1546,1.1546,1.1546,1.1506,1.1505,1.1504,0,0,0,0,0,0,0,0,0,0,0,0,0,1.1641,1.1672,1.1613,1.1595,1.1593,1.1571,1.1571,1.157,1.1546,1.1546,1.1546,1.1546,1.1506,1.1505,1.1503,1.1497,0,0,1.1499,1.1498,0,0,0,0,0,0,0,0,1.1643,1.1639,1.1598,1.1596,1.1594,1.1564,1.1577,1.1545,1.1546,1.1564,1.1546,1.1546,1.1525,1.1522,1.1515,1.1495,1.1493,1.1499,1.1498,1.1497,1.1497,0,0,0,0,0,0,0,1.1645,1.164,1.1596,1.1597,1.1595,1.159,1.1585,1.1571,1.1546,1.1563,1.1561,1.1556,1.1524,1.1516,1.1514,1.1493,1.1499,1.1497,1.1497,1.1496,1.1467,1.1467,0,0,0,0,0,0,1.165,1.1642,1.1597,1.1595,1.1618,1.1589,1.1583,1.1573,1.1546,1.1542,1.1556,1.1555,1.1519,1.1515,1.1512,1.1503,1.1497,1.1496,1.1495,1.1466,1.1467,1.1467,0,0,0,0,0,0,1.1651,1.1646,1.1599,1.1618,1.1612,1.1588,1.1577,1.1573,1.1565,1.1541,1.1537,1.1553,1.1519,1.1514,1.1501,1.1501,1.1495,1.1494,1.1466,1.1466,1.1467,1.1485,0,0,0,0,0,0,1.1653,1.1647,1.1643,1.1618,1.1611,1.1588,1.1577,1.1572,1.1562,1.156,1.1537,1.1533,1.1518,1.1503,1.1499,1.1499,1.1493,1.1466,1.1466,1.1467,1.1484,1.1486,1.1487,0,0,0,0,0,1.1655,1.1651,1.1643,1.1638,1.1606,1.1588,1.1584,1.1567,1.1562,1.1559,1.1544,1.1534,1.1502,1.1502,1.1498,1.1497,1.1466,1.1466,1.1467,1.1484,1.1486,1.1487,0,0,0,0,0,0,1.1677,1.1647,1.1639,1.1625,1.1609,1.1584,1.158,1.1569,1.1554,1.1553,1.1533,1.1528,1.1517,1.1506,1.1506,1.149,1.1483,1.1482,1.1497,1.1499,1.15,1.1504,1.1491,0,0,0,0,0,1.168,1.1667,1.1642,1.1633,1.1625,1.1604,1.1595,1.1583,1.1566,1.156,1.1544,1.1528,1.1515,1.1506,1.1492,1.1483,1.1478,1.148,1.1481,1.1483,1.1482,1.1477,1.1478,1.1468,1.1468,1.1468,0,0,1.1687,1.1669,1.1662,1.1637,1.1623,1.1611,1.1598,1.1586,1.1577,1.1558,1.1544,1.1532,1.1513,1.1502,1.1496,1.1492,1.1484,1.1483,1.1484,1.1483,1.1477,1.1478,1.1479,1.1468,1.1468,1.1468,0,0,1.1692,1.1677,1.1668,1.1654,1.1634,1.162,1.1618,1.1594,1.1585,1.1571,1.1556,1.1546,1.1523,1.151,1.1501,1.1503,1.1493,1.1499,1.1506,1.1501,1.1502,1.1503,1.1504,1.1505,1.1499,1.1499,1.1499,0,1.1703,1.1684,1.1665,1.1653,1.1643,1.1625,1.1616,1.1604,1.158,1.1574,1.1569,1.1541,1.1527,1.1512,1.1513,1.1506,1.1503,1.1502,1.1503,1.1504,1.1504,1.1505,1.1506,1.15,1.15,1.1499,1.1499,0,1.1698,1.1685,1.1681,1.1657,1.1647,1.1637,1.1617,1.1608,1.1598,1.1584,1.1571,1.1554,1.1536,1.1532,1.1521,1.1516,1.1515,1.1507,1.15,1.1507,1.1507,1.1507,1.1501,1.1501,1.15,1.15,0,0,1.1716,1.1683,1.1682,1.1671,1.1647,1.1637,1.1627,1.1609,1.1603,1.1587,1.1578,1.156,1.1553,1.1542,1.153,1.1526,1.1529,1.1519,1.1518,1.1522,1.1523,1.1529,1.153,1.1522,1.1522,1.1522,1.1525,0,1.1719,1.1698,1.1681,1.1668,1.1656,1.1638,1.1629,1.1614,1.1602,1.159,1.1577,1.1564,1.1556,1.1549,1.1544,1.153,1.1529,1.1529,1.1514,1.1514,1.152,1.153,1.1536,1.1539,1.1525,1.1525,1.1525,0,1.1719,1.1704,1.1689,1.1666,1.1661,1.1653,1.1636,1.1625,1.1608,1.1599,1.1587,1.1575,1.1564,1.1558,1.1543,1.1543,1.1536,1.1528,1.1528,1.1526,1.152,1.1529,1.154,1.1541,1.1525,1.1525,1.1525,0,1.1734,1.171,1.1698,1.1689,1.1663,1.1658,1.1647,1.1629,1.162,1.1606,1.16,1.1584,1.1576,1.1565,1.1549,1.1546,1.1536,1.1528,1.1529,1.1529,1.1528,1.1528,1.1538,1.1522,1.1522,1.1522,1.1522,0,1.1739,1.173,1.1704,1.1697,1.1687,1.1668,1.1659,1.1647,1.1632,1.1622,1.1606,1.1598,1.1577,1.1567,1.1554,1.1544,1.154,1.1533,1.153,1.1535,1.1536,1.153,1.153,1.1523,1.1523,1.1523,1.1523,0,1.1754,1.1736,1.1722,1.1698,1.1692,1.1686,1.1666,1.1659,1.1645,1.1634,1.163,1.1609,1.1596,1.1579,1.156,1.1552,1.1543,1.1538,1.1549,1.1547,1.1549,1.1549,1.1556,1.1557,1.1541,1.1541,1.1541,0,1.1758,1.1752,1.1727,1.1719,1.1709,1.1696,1.1687,1.1668,1.1659,1.1639,1.1635,1.162,1.1607,1.1587,1.1571,1.1557,1.1552,1.1555,1.1549,1.1555,1.1552,1.1553,1.1553,1.1557,1.1557,1.1557,1.1557,0,1.1768,1.176,1.1747,1.173,1.172,1.1706,1.1692,1.1687,1.1665,1.1656,1.1642,1.1632,1.1613,1.1599,1.1583,1.1572,1.1562,1.1559,1.1559,1.1564,1.157,1.1567,1.1553,1.1559,1.1559,1.1559,1.1559,1.1559,1.1778,1.1772,1.1754,1.174,1.1727,1.1714,1.1706,1.1692,1.168,1.1663,1.1653,1.1639,1.1623,1.16,1.159,1.1579,1.1575,1.1574,1.1574,1.1575,1.1576,1.1572,1.1576,1.1576,1.1576,1.1576,1.1576,0,1.1788,1.1775,1.1763,1.1743,1.1733,1.1723,1.1707,1.1699,1.1687,1.1672,1.166,1.1645,1.1631,1.1614,1.1599,1.1595,1.1589,1.1592,1.1592,1.159,1.1581,1.1583,1.1596,1.1596,1.1596,1.1596,1.1596,1.1596,1.1792,1.178,1.177,1.1752,1.174,1.1726,1.1718,1.1706,1.1695,1.1678,1.1666,1.1655,1.164,1.1624,1.1611,1.1607,1.1603,1.1606,1.16,1.1592,1.159,1.1589,1.1591,1.1605,1.1605,1.161,1.161,1.161]},{"header":{"parameterUnit":"m.s-1","parameterCategory":1,"la1":30.2991,"la2":30.254,"lo1":-89.0895,"lo2":-89.0444,"dy":0.0017,"dx":0.0017,"nx":28,"ny":28,"refTime":"2025-07-11T21:00:00:Z","depth":0,"parameterNumber":3,"parameterNumberName":"V-component_of_WINDS"},"data":[0,0,0,0,0,0,0,0,0,0,0,0,0,0,0,0,0,0,0,0,0,0,0,0,0,0,0,0,0,0,0,0,0,0,0,0,0,0,0,0,0,0,0,0,0,0,0,0,0,0,0,0,0,0,0,0,0,0,0.4024,0.4024,0,0.3979,0.3979,0.3978,0.3976,0.3977,0.3977,0.3978,0.393,0.3928,0.3927,0,0,0,0,0,0,0,0,0,0,0,0,0,0.4106,0.4105,0.4024,0.4024,0.4023,0.398,0.3979,0.3978,0.3976,0.3977,0.3977,0.3978,0.3931,0.3929,0.3927,0,0,0,0,0,0,0,0,0,0,0,0,0,0.4067,0.4104,0.4025,0.4017,0.4016,0.398,0.3979,0.3978,0.3976,0.3977,0.3977,0.3978,0.3931,0.3929,0.3926,0.3894,0,0,0.3918,0.3917,0,0,0,0,0,0,0,0,0.4069,0.4064,0.4019,0.4017,0.4016,0.3984,0.399,0.395,0.3976,0.3991,0.3978,0.3978,0.3947,0.3944,0.3933,0.3892,0.389,0.3918,0.3916,0.3915,0.3915,0,0,0,0,0,0,0,0.4072,0.4066,0.4007,0.4018,0.4016,0.4015,0.401,0.3983,0.3965,0.399,0.3989,0.3984,0.3947,0.3936,0.3932,0.3889,0.3918,0.3916,0.3914,0.3913,0.3819,0.3818,0,0,0,0,0,0,0.4076,0.4068,0.4008,0.4005,0.4045,0.4013,0.4008,0.3994,0.3966,0.3962,0.3984,0.3984,0.394,0.3935,0.3931,0.389,0.3915,0.3913,0.3911,0.382,0.3819,0.3818,0,0,0,0,0,0,0.4078,0.4071,0.401,0.4037,0.4029,0.4011,0.3995,0.3992,0.3981,0.3961,0.3958,0.3976,0.394,0.3934,0.3903,0.3889,0.3912,0.3909,0.3821,0.3819,0.3818,0.3811,0,0,0,0,0,0,0.4081,0.4072,0.406,0.4036,0.4027,0.3984,0.3994,0.3991,0.3977,0.3977,0.3953,0.3949,0.3941,0.3907,0.3901,0.3886,0.3907,0.3822,0.382,0.3819,0.3812,0.3809,0.3807,0,0,0,0,0,0.4084,0.4059,0.4059,0.4052,0.4012,0.3983,0.3978,0.3969,0.3976,0.3963,0.395,0.395,0.3892,0.3904,0.3897,0.3881,0.3823,0.3821,0.3819,0.3813,0.381,0.3807,0,0,0,0,0,0,0.4081,0.4056,0.4056,0.4024,0.4005,0.3983,0.3967,0.3965,0.3944,0.3946,0.3935,0.3929,0.3898,0.3886,0.3901,0.3848,0.3858,0.3854,0.3857,0.3853,0.385,0.3853,0.3905,0,0,0,0,0,0.4077,0.4056,0.4035,0.4009,0.4,0.3985,0.3972,0.3966,0.3947,0.3939,0.3924,0.3904,0.3882,0.3867,0.3845,0.3811,0.3805,0.3796,0.3794,0.3791,0.3788,0.3768,0.3764,0.3811,0.3811,0.3811,0,0,0.4068,0.4052,0.4039,0.4008,0.3993,0.3971,0.3978,0.3955,0.3938,0.3935,0.3905,0.3893,0.3871,0.3838,0.3823,0.3827,0.3774,0.3789,0.3787,0.3785,0.3766,0.3761,0.3757,0.3809,0.381,0.381,0,0,0.404,0.4026,0.4002,0.3987,0.3965,0.3955,0.395,0.3927,0.3919,0.3889,0.3886,0.3866,0.3827,0.3811,0.3798,0.3763,0.3762,0.3757,0.3742,0.3723,0.3719,0.3716,0.3703,0.3698,0.3754,0.3753,0.3753,0,0.4032,0.3998,0.399,0.3966,0.3952,0.3949,0.3924,0.391,0.3882,0.3872,0.3877,0.3828,0.3813,0.3776,0.3768,0.3758,0.375,0.3759,0.3721,0.3717,0.3714,0.3701,0.3696,0.3753,0.3753,0.3753,0.3753,0,0.3988,0.3965,0.3949,0.3921,0.3906,0.3881,0.3868,0.3853,0.3849,0.3839,0.3807,0.3789,0.3763,0.3754,0.375,0.3716,0.3719,0.3723,0.3733,0.3709,0.3697,0.3692,0.3752,0.3752,0.3752,0.3753,0,0,0.3957,0.3926,0.392,0.3907,0.3882,0.3864,0.3839,0.3814,0.3801,0.3781,0.376,0.3727,0.373,0.3715,0.3709,0.3692,0.3665,0.3698,0.3697,0.3691,0.3626,0.3622,0.3617,0.3664,0.3664,0.3663,0.3627,0,0.3926,0.3882,0.3874,0.3836,0.3814,0.3811,0.3789,0.3771,0.3761,0.374,0.3728,0.3705,0.3711,0.3702,0.3685,0.3672,0.3651,0.3674,0.3643,0.3642,0.3648,0.3611,0.3607,0.3574,0.3622,0.3622,0.3621,0,0.3883,0.3863,0.3822,0.38,0.379,0.3771,0.3747,0.3728,0.3707,0.3701,0.3684,0.368,0.3653,0.3665,0.3628,0.3643,0.363,0.3622,0.362,0.3616,0.3629,0.3605,0.3564,0.3559,0.3614,0.3614,0.3615,0,0.3863,0.3826,0.3797,0.3786,0.3759,0.3746,0.3734,0.3714,0.3699,0.3678,0.3668,0.3644,0.3631,0.3612,0.3601,0.3611,0.3564,0.3576,0.3557,0.3558,0.3547,0.3548,0.3503,0.354,0.354,0.354,0.3541,0,0.3828,0.3804,0.3787,0.3769,0.3741,0.3731,0.3704,0.3692,0.3674,0.3653,0.365,0.363,0.3617,0.3595,0.3587,0.3557,0.3551,0.3544,0.3542,0.3544,0.3545,0.3534,0.3536,0.3539,0.3539,0.354,0.354,0,0.3801,0.3789,0.3757,0.3734,0.3728,0.3708,0.3689,0.3671,0.366,0.3634,0.3627,0.361,0.3585,0.3572,0.354,0.3534,0.35,0.35,0.3507,0.3506,0.3488,0.3489,0.3434,0.3426,0.347,0.3469,0.3469,0,0.3779,0.376,0.3735,0.3721,0.3709,0.3686,0.3671,0.3661,0.3645,0.362,0.3605,0.3579,0.3558,0.3517,0.3501,0.3477,0.3475,0.3458,0.3471,0.3474,0.3474,0.3475,0.3472,0.3455,0.3454,0.3454,0.3454,0,0.3741,0.3736,0.3715,0.3691,0.3673,0.3654,0.3635,0.3623,0.361,0.3592,0.3566,0.355,0.3517,0.3491,0.3465,0.3453,0.345,0.345,0.3444,0.3445,0.345,0.3446,0.3499,0.3451,0.3451,0.3451,0.3451,0.3451,0.3715,0.3697,0.3677,0.3653,0.3638,0.362,0.3602,0.3589,0.3567,0.354,0.3535,0.3507,0.3487,0.3452,0.3438,0.3416,0.3419,0.3411,0.3409,0.3407,0.3406,0.3454,0.3411,0.3411,0.3411,0.3411,0.3411,0,0.3676,0.3663,0.3641,0.3614,0.3595,0.3596,0.3575,0.3558,0.3534,0.3515,0.3494,0.3464,0.3438,0.3421,0.3395,0.3381,0.3379,0.3374,0.3375,0.3371,0.3404,0.3411,0.3376,0.3376,0.3376,0.3376,0.3376,0.3376,0.3653,0.3623,0.3616,0.3578,0.3565,0.3538,0.3525,0.3509,0.3493,0.346,0.3439,0.3428,0.3409,0.3382,0.3359,0.3354,0.3345,0.3339,0.3335,0.3366,0.3369,0.3373,0.3379,0.3338,0.3338,0.3304,0.3303,0.3303]}]]